Date String (YYYY-MM-DD hh:mm:ss) UTC,Instrument flags,Ambient pressure (hPa),Sample flow (lpm),Bypass flow (lpm),Sample temperature (°C),Ambient temperature (°C),ASC tube jacket temperature (°C),LED temperature (°C),Box temperature (°C),Sample RH (%),Span deviation,Mass concentration (μg/m³),Mass concentration (μg/m³),Mass concentration (μg/m³)
DateTimeUTC,F1_M11,P_M11,Q1_M11,Q2_M11,T1_M11,T2_M11,T3_M11,T4_M11,T5_M11,U1_M11,ZSPAN_M11,X2_M11,X0_M11,X1_M11
2022-03-21 00:00:00,,0815.9,4.98,0.00,29.7,28.9,00.0,38.6,31.5,05.6,0000.0,0004.42,0011.21,0002.63
2022-03-21 00:01:00,,0816.0,5.02,0.00,29.7,28.9,00.0,38.6,31.5,05.8,0000.0,0004.36,0010.95,0002.60
2022-03-21 00:02:00,,0815.9,5.00,0.00,29.7,28.9,00.0,38.6,31.5,05.9,0000.0,0004.38,0011.02,0002.60
2022-03-21 00:03:00,,0815.7,5.00,0.00,29.7,28.8,00.0,38.6,31.4,05.9,0000.0,0004.36,0010.89,0002.61
2022-03-21 00:04:00,,0815.8,4.99,0.00,29.7,28.8,00.0,38.6,31.4,06.0,0000.0,0004.29,0011.42,0002.61
2022-03-21 00:05:00,,0816.0,5.01,0.00,29.7,28.8,00.0,38.6,31.4,05.9,0000.0,0004.20,0011.23,0002.61
2022-03-21 00:06:00,,0815.9,4.99,0.00,29.6,28.8,00.0,38.6,31.3,05.9,0000.0,0004.13,0011.04,0002.60
2022-03-21 00:07:00,,0816.1,5.02,0.00,29.6,28.7,00.0,38.6,31.3,05.9,0000.0,0004.14,0010.60,0002.59
2022-03-21 00:08:00,,0816.0,4.99,0.00,29.6,28.7,00.0,38.6,31.2,05.8,0000.0,0004.16,0010.44,0002.59
2022-03-21 00:09:00,,0816.0,4.99,0.00,29.5,28.7,00.0,38.6,31.2,05.8,0000.0,0004.13,0010.57,0002.59
2022-03-21 00:10:00,,0815.9,5.01,0.00,29.5,28.6,00.0,38.6,31.1,06.2,0000.0,0004.14,0010.63,0002.58
2022-03-21 00:11:00,,0815.6,4.98,0.00,29.5,28.6,00.0,38.6,31.1,06.3,0000.0,0004.10,0010.38,0002.57
2022-03-21 00:12:00,,0815.9,5.02,0.00,29.5,28.6,00.0,38.6,31.1,06.2,0000.0,0004.12,0010.64,0002.58
2022-03-21 00:13:00,,0816.0,4.98,0.00,29.4,28.5,00.0,38.5,31.1,06.3,0000.0,0004.11,0011.37,0002.58
2022-03-21 00:14:00,,0815.6,5.02,0.00,29.4,28.5,00.0,38.5,31.1,06.3,0000.0,0004.13,0011.59,0002.57
2022-03-21 00:15:00,,0815.6,4.98,0.00,29.4,28.5,00.0,38.5,31.0,06.4,0000.0,0004.16,0010.74,0002.56
2022-03-21 00:16:00,,0815.6,5.02,0.00,29.4,28.5,00.0,38.5,31.0,06.4,0000.0,0004.19,0010.93,0002.57
2022-03-21 00:17:00,,0815.6,4.99,0.00,29.3,28.4,00.0,38.5,30.9,06.4,0000.0,0004.26,0011.52,0002.58
2022-03-21 00:18:00,,0815.6,5.01,0.00,29.3,28.4,00.0,38.5,30.9,06.5,0000.0,0004.27,0011.87,0002.59
2022-03-21 00:19:00,,0815.6,5.00,0.00,29.3,28.3,00.0,38.4,30.9,06.9,0000.0,0004.27,0013.05,0002.63
2022-03-21 00:20:00,,0815.6,5.00,0.00,29.3,28.3,00.0,38.4,30.9,07.1,0000.0,0004.32,0013.22,0002.69
2022-03-21 00:21:00,,0815.7,5.01,0.00,29.2,28.3,00.0,38.4,30.9,07.3,0000.0,0004.37,0013.30,0002.74
2022-03-21 00:22:00,,0815.7,5.00,0.00,29.2,28.3,00.0,38.4,30.9,06.9,0000.0,0004.46,0013.57,0002.78
2022-03-21 00:23:00,,0815.7,4.99,0.00,29.2,28.3,00.0,38.4,30.9,06.9,0000.0,0004.47,0013.39,0002.79
2022-03-21 00:24:00,,0815.7,5.00,0.00,29.2,28.3,00.0,38.4,30.9,06.8,0000.0,0004.47,0012.68,0002.79
2022-03-21 00:25:00,,0815.8,5.02,0.00,29.2,28.3,00.0,38.3,30.8,06.7,0000.0,0004.50,0012.62,0002.79
2022-03-21 00:26:00,,0815.7,5.01,0.00,29.1,28.3,00.0,38.3,30.8,06.9,0000.0,0004.50,0012.55,0002.80
2022-03-21 00:27:00,,0815.8,5.00,0.00,29.1,28.2,00.0,38.3,30.8,07.3,0000.0,0004.48,0012.29,0002.83
2022-03-21 00:28:00,,0815.8,4.99,0.00,29.1,28.2,00.0,38.3,30.7,07.3,0000.0,0004.51,0011.92,0002.83
2022-03-21 00:29:00,,0815.8,5.01,0.00,29.1,28.2,00.0,38.3,30.7,07.3,0000.0,0004.51,0011.83,0002.81
2022-03-21 00:30:00,,0815.8,4.99,0.00,29.0,28.1,00.0,38.2,30.6,06.8,0000.0,0004.52,0010.71,0002.79
2022-03-21 00:31:00,,0815.8,5.01,0.00,29.0,28.0,00.0,38.2,30.6,06.9,0000.0,0004.48,0010.50,0002.71
2022-03-21 00:32:00,,0815.8,5.00,0.00,29.0,28.0,00.0,38.2,30.5,06.9,0000.0,0004.41,0010.35,0002.64
2022-03-21 00:33:00,,0815.8,4.99,0.00,29.0,28.0,00.0,38.2,30.6,07.0,0000.0,0004.31,0010.20,0002.58
2022-03-21 00:34:00,,0815.8,5.02,0.00,28.9,28.0,00.0,38.2,30.6,07.2,0000.0,0004.27,0010.09,0002.55
2022-03-21 00:35:00,,0815.8,4.99,0.00,28.9,28.0,00.0,38.1,30.6,07.2,0000.0,0004.26,0010.59,0002.55
2022-03-21 00:36:00,,0815.8,5.01,0.00,28.9,28.0,00.0,38.1,30.6,07.3,0000.0,0004.21,0010.55,0002.52
2022-03-21 00:37:00,,0815.8,4.99,0.00,28.9,28.0,00.0,38.1,30.6,07.4,0000.0,0004.17,0010.54,0002.51
2022-03-21 00:38:00,,0815.8,5.00,0.00,28.9,28.0,00.0,38.1,30.6,07.5,0000.0,0004.18,0011.32,0002.49
2022-03-21 00:39:00,,0815.8,5.00,0.00,28.9,28.1,00.0,38.1,30.7,07.5,0000.0,0004.16,0011.60,0002.44
2022-03-21 00:40:00,,0815.8,5.01,0.00,29.0,28.1,00.0,38.1,30.7,07.4,0000.0,0004.13,0011.38,0002.43
2022-03-21 00:41:00,,0815.8,4.99,0.00,29.0,28.1,00.0,38.1,30.7,07.5,0000.0,0004.13,0011.37,0002.42
2022-03-21 00:42:00,,0815.8,5.01,0.00,29.0,28.1,00.0,38.1,30.7,07.5,0000.0,0004.12,0011.00,0002.43
2022-03-21 00:43:00,,0815.8,4.98,0.00,28.9,28.1,00.0,38.1,30.6,07.2,0000.0,0004.09,0010.83,0002.45
2022-03-21 00:44:00,,0815.8,5.01,0.00,28.9,28.1,00.0,38.0,30.6,07.1,0000.0,0004.09,0010.78,0002.45
2022-03-21 00:45:00,,0815.8,4.99,0.00,28.9,28.0,00.0,38.0,30.5,07.2,0000.0,0004.08,0010.86,0002.45
2022-03-21 00:46:00,,0815.8,4.99,0.00,28.9,28.0,00.0,38.0,30.5,07.2,0000.0,0004.05,0010.25,0002.45
2022-03-21 00:47:00,,0815.8,5.01,0.00,28.9,28.0,00.0,38.0,30.6,07.2,0000.0,0004.11,0010.29,0002.45
2022-03-21 00:48:00,,0815.8,4.99,0.00,28.9,28.0,00.0,38.0,30.6,07.3,0000.0,0004.12,0010.45,0002.46
2022-03-21 00:49:00,,0815.9,4.99,0.00,28.9,28.1,00.0,38.0,30.6,07.2,0000.0,0004.12,0009.83,0002.45
2022-03-21 00:50:00,,0815.9,5.01,0.00,28.9,28.1,00.0,38.0,30.6,07.1,0000.0,0004.12,0009.62,0002.47
2022-03-21 00:51:00,,0815.9,4.99,0.00,28.9,28.1,00.0,38.0,30.7,07.1,0000.0,0004.10,0009.60,0002.47
2022-03-21 00:52:00,,0815.9,5.01,0.00,28.9,28.2,00.0,38.0,30.7,07.2,0000.0,0004.10,0009.57,0002.46
2022-03-21 00:53:00,,0815.9,5.01,0.00,29.0,28.2,00.0,38.0,30.7,07.3,0000.0,0004.09,0009.62,0002.47
2022-03-21 00:54:00,,0816.0,5.00,0.00,29.0,28.2,00.0,38.0,30.8,07.2,0000.0,0004.12,0009.73,0002.46
2022-03-21 00:55:00,,0815.9,5.02,0.00,29.0,28.3,00.0,38.0,30.8,07.3,0000.0,0004.14,0009.75,0002.47
2022-03-21 00:56:00,,0815.9,4.98,0.00,29.0,28.3,00.0,38.0,30.8,07.3,0000.0,0004.09,0009.47,0002.48
2022-03-21 00:57:00,,0816.0,5.00,0.00,29.1,28.3,00.0,38.0,30.9,07.3,0000.0,0004.09,0009.51,0002.50
2022-03-21 00:58:00,,0816.0,4.99,0.00,29.1,28.3,00.0,38.0,30.9,07.2,0000.0,0004.07,0009.65,0002.50
2022-03-21 00:59:00,,0815.9,5.00,0.00,29.1,28.4,00.0,38.0,30.9,07.2,0000.0,0004.09,0009.62,0002.50
